Tracking 28514 objects as of 23-Feb-2024
HD Live streaming from Space Station
objects crossing your sky now

CLUSTER II-FM6

Track CLUSTER II-FM6 now!
CLUSTER II-FM6 is classified as:


NORAD ID: 26410
Int'l Code: 2000-041A
Perigee: 14,054.5 km
Apogee: 118,838.2 km
Inclination: 138.2 °
Period: 3,259.2 minutes
Semi major axis: 72817 km
RCS: 1.9953 m2 (large)
Launch date: July 16, 2000
Source: European Space Agency (ESA)
Launch site: TYURATAM MISSILE AND SPACE COMPLEX (TTMTR)
Your satellite tracking list
Your tracking list is empty




NASA's NSSDC Master Catalog

Two Line Element Set (TLE):
1 26410U 00041A   24056.26226636  .00000060  00000-0  00000-0 0  9994
2 26410 138.1901 356.0487 7194967 210.8423 359.4642  0.44182540 16541
Source of the keplerian elements: AFSPC